Location: Brookview Estates
(36.0476°N, 86.6931°W)
Time: 10:37:28
(UTC+00:00)

Lacrosse 5 rocket - Pass Details

Date: 30 March 2020
Orbit: 458 x 638 km, 57.0° (Epoch: 25 May)

Event Time Altitude Azimuth Distance (km) Brightness Sun altitude
Exits shadow 08:54:18 17° 30° (NNE) 1,340 3.9 -31.4°
Drops below altitude 10° 08:55:15 10° 33° (NNE) 1,713 4.6 -31.3°
Sets 08:57:32 0° 38° (NE) 2,633 5.8 -30.9°
